Satellite-Ground Cal/Val Site Overpasses Predictions

Prediction of Satellite NPP Overpassing Cal/Val Site: Antarctic Dome C

Ground Cal/Val Site Location: Latitude: -75.10, Longitude: 123.35; Satellite-Ground Site NADIR distance within 100 km.

Table of predicted overpasses for the next 14.0 days since TLE Epoch: 9/6/2019
Interval Starting Time Ending Time Minimum Distance Time Minimum Distance (km)
1 09/07/2019 07:44:27 09/07/2019 07:44:48 09/07/2019 07:44:38 70.39
2 09/08/2019 07:25:35 09/08/2019 07:26:02 09/08/2019 07:25:49 37.54
3 09/10/2019 15:08:03 09/10/2019 15:08:09 09/10/2019 15:08:06 97.49
4 09/11/2019 14:49:01 09/11/2019 14:49:30 09/11/2019 14:49:15 13.87
5 09/13/2019 07:31:51 09/13/2019 07:32:20 09/13/2019 07:32:06 2.22
6 09/16/2019 14:55:18 09/16/2019 14:55:46 09/16/2019 14:55:32 22.50
7 09/17/2019 14:36:36 09/17/2019 14:36:51 09/17/2019 14:36:43 84.51
8 09/18/2019 07:38:08 09/18/2019 07:38:35 09/18/2019 07:38:21 34.91


NCC Satellite Cal/Val Overpasses Prediction Service
